Location: De Greiden
(52.9496°N, 5.9137°E)
Time: 23:35:37
(UTC+00:00)

CZ-2C R/B - Pass Details

Date: 24 January 2021
Orbit: 785 x 870 km, 98.2° (Epoch: 01 March)

Event Time Altitude Azimuth Distance (km) Brightness Sun altitude
Exits shadow 19:52:02 49° 262° (W) 1,104 3.5 -33.5°
Drops below altitude 10° 19:56:38 10° 218° (SW) 2,511 5.4 -34.2°
Sets 19:59:04 0° 213° (SSW) 3,447 6.1 -34.5°
